Location: Unspecified
(0.0000°N, 0.0000°E)
Time: 08:32:34
(UTC+02:00)

ADEOS II - Visible Passes

Search period start: 02 August 2014 00:00
Search period end: 12 August 2014 00:00
Orbit: 801 x 803 km, 98.3° (Epoch: 31 July)

Date Brightness Start Highest point End Pass type
(mag) Time Alt. Az. Time Alt. Az. Time Alt. Az.
02 Aug 4.1 20:30:00 10° SSW 20:34:33 30° WSW 20:39:06 10° NW visible
03 Aug 3.3 07:26:48 10° NNE 07:31:48 46° ESE 07:36:48 10° S visible
04 Aug 4.5 07:01:53 10° NE 07:05:55 23° ESE 07:09:58 10° SSE visible
05 Aug 5.2 06:39:03 10° E 06:40:04 11° ESE 06:41:05 10° ESE visible
05 Aug 4.8 20:53:10 10° SW 20:56:22 16° WSW 20:59:35 10° WNW visible
06 Aug 4.0 20:25:49 10° SSW 20:30:30 33° WSW 20:35:11 10° NW visible
07 Aug 3.5 07:22:50 10° NNE 07:27:45 42° ESE 07:32:41 10° S visible
08 Aug 4.6 06:58:03 10° NE 07:01:53 21° ESE 07:05:43 10° SSE visible
09 Aug 4.8 20:48:50 10° SW 20:52:19 18° WSW 20:55:49 10° WNW visible
11 Aug 3.6 07:18:52 10° NE 07:23:42 38° ESE 07:28:32 10° S visible
